Location: Fredericksburg
(30.2750°N, 98.8720°W)
Time: 19:25:55
(UTC-05:00)

Amateur Radio Satellites - All Passes

Search period start: 23 September 2014 18:55
Search period end: 24 September 2014 18:55
Location: Fredericksburg, 30.2750°N, 98.8720°W

Satellite Date Start Highest point End Downlink Frequencies (MHz)
Time Altitude Azimuth
AO-7 23 Sep 19:03:27 19:07:43 15° 266° (W) 19:12:00 29.400 - 29.500 MHz
JAS-2 23 Sep 19:09:50 19:15:00 54° 259° (W) 19:20:03 435.800 - 435.900 CW/SSB, 435.910 FM
OPAL 23 Sep 19:41:00 19:44:10 17° 295° (WNW) 19:47:18 ?
SO-67 23 Sep 19:44:17 19:47:32 40° 76° (ENE) 19:50:47 435.3500 MHz FM
Hamsat 23 Sep 19:44:27 19:47:37 20° 264° (W) 19:50:48 145.90 MHz
STRAND 1 23 Sep 20:27:28 20:32:37 87° 283° (WNW) 20:37:46 ?
KITSAT 1 23 Sep 20:34:55 20:41:49 30° 306° (NW) 20:48:45 435.175 FM
HO-68 23 Sep 20:46:35 20:52:12 26° 65° (ENE) 20:57:50 435.675 MHz FM
Sapphire 23 Sep 20:52:50 20:56:58 22° 57° (ENE) 21:01:05 437.095 MHz 1200 baud AX-25 AFSK
SO-50 23 Sep 21:03:21 21:07:06 28° 111° (ESE) 21:10:55 436.795 FM
PCSat 23 Sep 21:18:38 21:23:44 40° 61° (ENE) 21:28:48 145.825 MHz
Oscar 11 23 Sep 21:34:38 21:36:31 13° 68° (ENE) 21:38:25 145.825 FM, Beacon 2401.500 USB
UKube-1 23 Sep 21:53:51 21:57:40 31° 72° (ENE) 22:01:29 145.840 MHz, 145.915 MHz
UOSAT-12 23 Sep 22:18:16 22:19:56 12° 107° (ESE) 22:21:37 437.025 FM, 437.400 FM
ZACube-1 23 Sep 22:19:05 22:21:54 17° 69° (ENE) 22:24:46 437.345 MHz
HO-68 23 Sep 22:32:41 22:39:29 48° 259° (W) 22:46:20 435.675 MHz FM
Oscar 10/S400 23 Sep 22:33:10 23:06:54 76° 196° (SSW) 09:06:36 145.825 - 145.975 CW/USB, Beacon 145.810 USB
Sapphire 23 Sep 22:35:26 22:40:28 40° 251° (WSW) 22:45:28 437.095 MHz 1200 baud AX-25 AFSK
SO-50 23 Sep 22:44:04 22:47:35 22° 305° (NW) 22:51:10 436.795 FM
PCSat 23 Sep 23:02:57 23:06:47 20° 255° (WSW) 23:10:36 145.825 MHz
Oscar 11 23 Sep 23:08:09 23:12:17 42° 261° (W) 23:16:26 145.825 FM, Beacon 2401.500 USB
FUNcube-1 23 Sep 23:10:08 23:14:30 70° 76° (ENE) 23:19:00 145.950 - 145.970 MHz USB
UKube-1 23 Sep 23:31:12 23:33:51 16° 264° (W) 23:36:31 145.840 MHz, 145.915 MHz
PANSAT 23 Sep 23:31:29 23:34:53 30° 162° (SSE) 23:38:16 not established
ZACube-1 23 Sep 23:54:01 23:57:58 33° 262° (W) 00:02:02 437.345 MHz
UOSAT-12 23 Sep 23:55:05 23:59:32 52° 300° (WNW) 00:04:06 437.025 FM, 437.400 FM
ISS 24 Sep 00:30:33 00:33:33 32° 129° (SE) 00:36:32 145.800 FM
PANSAT 24 Sep 01:11:02 01:14:49 62° 174° (S) 01:18:37 not established
RS-15 24 Sep 02:03:08 02:06:38 12° 99° (E) 02:10:06 29.354 - 29.394 USB, Beacon 29.352 USB
ISS 24 Sep 02:07:57 02:10:17 18° 323° (NW) 02:12:38 145.800 FM
JAS-1B 24 Sep 02:16:03 02:17:21 11° 94° (E) 02:18:40 435.800 - 435.900 CW/SSB
Saudisat 1A 24 Sep 02:24:11 02:28:37 88° 243° (WSW) 02:33:00 436.775 MHz
Oscar 16 24 Sep 02:24:22 02:28:50 29° 98° (E) 02:33:15 437.025 USB, Beacon 2401.1428
PANSAT 24 Sep 02:51:06 02:54:53 60° 187° (S) 02:58:40 not established
ITAMSAT 1 24 Sep 03:17:25 03:22:18 39° 99° (E) 03:27:10 435.822 SSB
Uribyol 2 24 Sep 03:20:17 03:25:17 46° 100° (E) 03:30:16 436.500 FM
Oscar 19 24 Sep 03:23:23 03:28:29 66° 285° (WNW) 03:33:33 437.125 CW, 437.150 USB
Gurwin Techsat 1B 24 Sep 03:34:27 03:38:54 27° 97° (E) 03:43:18 435.225 FM
AO-Echo 24 Sep 03:36:53 03:41:51 81° 102° (ESE) 03:46:58 ?
AO-27 24 Sep 03:53:28 03:58:42 83° 284° (WNW) 04:03:55 436.795 MHz FM
JAS-1B 24 Sep 04:02:44 04:08:20 64° 286° (WNW) 04:14:17 435.800 - 435.900 CW/SSB
Oscar 16 24 Sep 04:03:52 04:07:59 25° 290° (WNW) 04:12:05 437.025 USB, Beacon 2401.1428
RS-15 24 Sep 04:06:08 04:17:16 78° 114° (ESE) 04:28:10 29.354 - 29.394 USB, Beacon 29.352 USB
TMSAT-1 24 Sep 04:07:50 04:12:51 42° 99° (E) 04:17:51 436.925 FM
PANSAT 24 Sep 04:31:31 04:34:48 27° 199° (SSW) 04:38:05 not established
KITSAT 1 24 Sep 04:33:06 04:40:55 51° 60° (ENE) 04:48:41 435.175 FM
Uosat F 24 Sep 04:53:02 04:56:07 16° 95° (E) 04:59:11 435.120 FM
ITAMSAT 1 24 Sep 04:57:50 05:01:26 19° 292° (WNW) 05:05:03 435.822 SSB
Uribyol 2 24 Sep 05:01:06 05:04:20 17° 293° (WNW) 05:07:34 436.500 FM
OPAL 24 Sep 05:10:00 05:14:51 43° 71° (ENE) 05:19:46 ?
Gurwin Techsat 1B 24 Sep 05:14:15 05:18:44 29° 290° (WNW) 05:23:12 435.225 FM
AO-7 24 Sep 05:14:33 05:22:14 41° 101° (E) 05:29:53 29.400 - 29.500 MHz
TMSAT-1 24 Sep 05:48:51 05:52:23 18° 292° (WNW) 05:55:55 436.925 FM
RS-15 24 Sep 06:22:01 06:30:39 26° 314° (NW) 06:39:17 29.354 - 29.394 USB, Beacon 29.352 USB
JAS-2 24 Sep 06:23:19 06:28:50 27° 98° (E) 06:34:48 435.800 - 435.900 CW/SSB, 435.910 FM
KITSAT 1 24 Sep 06:29:20 06:35:50 28° 255° (WSW) 06:42:20 435.175 FM
Uosat F 24 Sep 06:30:17 06:34:59 42° 287° (WNW) 06:39:42 435.120 FM
OPAL 24 Sep 06:50:28 06:53:49 17° 263° (W) 06:57:13 ?
AO-7 24 Sep 07:07:28 07:14:47 37° 295° (WNW) 07:22:06 29.400 - 29.500 MHz
SO-50 24 Sep 07:19:46 07:24:36 68° 62° (ENE) 07:29:26 436.795 FM
MaSat-1 24 Sep 07:27:20 07:32:05 48° 108° (ESE) 07:36:50 437.345 MHz
Hamsat 24 Sep 07:34:42 07:38:53 70° 283° (WNW) 07:43:02 145.90 MHz
STRAND 1 24 Sep 07:37:37 07:42:40 75° 76° (ENE) 07:47:45 ?
JAS-2 24 Sep 08:07:44 08:13:47 43° 287° (WNW) 08:20:31 435.800 - 435.900 CW/SSB, 435.910 FM
UOSAT-12 24 Sep 08:30:31 08:34:34 28° 56° (NE) 08:38:32 437.025 FM, 437.400 FM
ISS 24 Sep 08:40:09 08:43:09 31° 41° (NE) 08:46:09 145.800 FM
SO-67 24 Sep 08:46:03 08:49:29 68° 282° (WNW) 08:52:53 435.3500 MHz FM
MaSat-1 24 Sep 09:05:51 09:08:57 16° 301° (WNW) 09:12:02 437.345 MHz
HO-68 24 Sep 10:06:28 10:13:18 46° 101° (E) 10:20:07 435.675 MHz FM
UOSAT-12 24 Sep 10:10:49 10:14:32 24° 250° (WSW) 10:18:11 437.025 FM, 437.400 FM
PCSat 24 Sep 10:15:19 10:16:48 11° 103° (ESE) 10:18:17 145.825 MHz
ISS 24 Sep 10:17:34 10:19:38 16° 234° (SW) 10:21:41 145.800 FM
Oscar 11 24 Sep 11:01:22 11:05:36 53° 100° (E) 11:09:47 145.825 FM, Beacon 2401.500 USB
RS-15 24 Sep 11:05:41 11:09:47 12° 31° (NNE) 11:13:55 29.354 - 29.394 USB, Beacon 29.352 USB
FUNcube-1 24 Sep 11:05:55 11:09:28 22° 96° (E) 11:12:58 145.950 - 145.970 MHz USB
UKube-1 24 Sep 11:23:16 11:27:33 59° 285° (WNW) 11:31:50 145.840 MHz, 145.915 MHz
Sapphire 24 Sep 11:27:49 11:33:07 62° 111° (ESE) 11:38:27 437.095 MHz 1200 baud AX-25 AFSK
ZACube-1 24 Sep 11:48:34 11:53:10 76° 101° (E) 11:57:39 437.345 MHz
PCSat 24 Sep 11:54:12 11:59:33 67° 295° (WNW) 12:04:57 145.825 MHz
HO-68 24 Sep 11:54:49 12:00:37 27° 295° (WNW) 12:06:25 435.675 MHz FM
FUNcube-1 24 Sep 12:42:00 12:45:44 25° 289° (WNW) 12:49:25 145.950 - 145.970 MHz USB
Sapphire 24 Sep 13:13:55 13:16:55 15° 307° (NW) 13:19:56 437.095 MHz 1200 baud AX-25 AFSK
RS-15 24 Sep 13:14:41 13:25:31 52° 57° (ENE) 13:36:45 29.354 - 29.394 USB, Beacon 29.352 USB
Oscar 16 24 Sep 13:36:03 13:40:11 25° 70° (ENE) 13:44:19 437.025 USB, Beacon 2401.1428
ITAMSAT 1 24 Sep 14:30:02 14:34:37 33° 71° (ENE) 14:39:13 435.822 SSB
Uribyol 2 24 Sep 14:32:39 14:37:24 38° 72° (ENE) 14:42:10 436.500 FM
Oscar 19 24 Sep 14:34:14 14:39:26 83° 257° (WSW) 14:44:39 437.125 CW, 437.150 USB
JAS-1B 24 Sep 14:39:30 14:48:02 66° 74° (ENE) 14:55:10 435.800 - 435.900 CW/SSB
AO-Echo 24 Sep 14:44:31 14:49:07 55° 75° (ENE) 14:53:42 ?
Gurwin Techsat 1B 24 Sep 14:50:16 14:54:28 25° 69° (ENE) 14:58:41 435.225 FM
AO-27 24 Sep 15:05:49 15:10:59 83° 76° (ENE) 15:16:10 436.795 MHz FM
Oscar 16 24 Sep 15:14:49 15:19:19 30° 262° (W) 15:23:51 437.025 USB, Beacon 2401.1428
TMSAT-1 24 Sep 15:23:02 15:27:52 38° 72° (ENE) 15:32:42 436.925 FM
RS-15 24 Sep 15:27:31 15:37:28 38° 253° (WSW) 15:47:51 29.354 - 29.394 USB, Beacon 29.352 USB
Uosat F 24 Sep 16:02:06 16:04:13 13° 66° (ENE) 16:06:19 435.120 FM
AO-7 24 Sep 16:07:40 16:14:52 34° 64° (ENE) 16:22:02 29.400 - 29.500 MHz
ITAMSAT 1 24 Sep 16:10:13 16:14:05 21° 264° (W) 16:17:59 435.822 SSB
Uribyol 2 24 Sep 16:13:22 16:16:55 19° 265° (W) 16:20:29 436.500 FM
Saudisat 1A 24 Sep 16:24:58 16:29:20 83° 297° (WNW) 16:33:45 436.775 MHz
AO-Echo 24 Sep 16:27:47 16:28:08 10° 267° (W) 16:28:29 ?
Gurwin Techsat 1B 24 Sep 16:29:35 16:34:13 31° 262° (W) 16:38:53 435.225 FM
JAS-1B 24 Sep 16:32:43 16:38:34 20° 263° (W) 16:43:53 435.800 - 435.900 CW/SSB
TMSAT-1 24 Sep 17:04:03 17:07:49 20° 265° (W) 17:11:36 436.925 FM
MaSat-1 24 Sep 17:26:40 17:29:14 20° 60° (ENE) 17:31:32 437.345 MHz
OPAL 24 Sep 17:26:52 17:30:21 18° 97° (E) 17:33:47 ?
Uosat F 24 Sep 17:37:35 17:42:27 56° 259° (W) 17:47:22 435.120 FM
AO-7 24 Sep 17:59:33 18:07:20 44° 259° (WSW) 18:15:09 29.400 - 29.500 MHz
JAS-2 24 Sep 18:15:09 18:20:02 41° 73° (ENE) 18:24:51 435.800 - 435.900 CW/SSB, 435.910 FM
Hamsat 24 Sep 18:22:09 18:26:11 38° 74° (ENE) 18:30:13 145.90 MHz
